Location: Johnson City
(36.3130°N, 82.3540°W)
Time: 11:45:52
(UTC-04:00)

X-37B - Visible Passes

Search period start: 12 May 2021 00:00
Search period end: 22 May 2021 00:00
Orbit: 386 x 389 km, 45.0° (Epoch: 08 May)

Date Brightness Start Highest point End Pass type
(mag) Time Alt. Az. Time Alt. Az. Time Alt. Az.
12 May 2.5 21:12:04 10° NW 21:14:44 24° NNE 21:17:25 10° ENE visible
12 May 2.5 22:48:26 10° WNW 22:50:11 29° WNW 22:50:11 29° WNW visible
13 May 0.9 21:50:04 10° NW 21:53:14 58° NNE 21:54:18 35° E visible
14 May 2.0 22:28:28 10° WNW 22:30:45 30° WSW 22:30:45 30° WSW visible
15 May 0.6 21:29:55 10° WNW 21:33:05 71° SSW 21:34:57 22° SE visible
16 May 2.7 22:08:56 10° W 22:11:05 17° SW 22:11:30 16° SSW visible
17 May 1.8 21:09:57 10° WNW 21:12:52 33° SW 21:15:46 10° SSE visible
